Tracking 29059 objects as of 19-Jun-2024
HD Live streaming from Space Station
objects crossing your sky now

STARLINK-1337

Track STARLINK-1337 now!
10-day predictions
STARLINK-1337 is classified as:


NORAD ID: 45582
Int'l Code: 2020-025BD
Perigee: 553.4 km
Apogee: 555.3 km
Inclination: 53.1 °
Period: 95.6 minutes
Semi major axis: 6925 km
RCS: Unknown
Launch date: April 22, 2020
Source: United States (US)
Launch site: AIR FORCE EASTERN TEST RANGE (AFETR)
Your satellite tracking list
Your tracking list is empty




NASA's NSSDC Master Catalog

Two Line Element Set (TLE):
1 45582U 20025BD  24170.84963222  .00007966  00000-0  55314-3 0  9992
2 45582  53.0554  19.5897 0001347  85.7784 274.3359 15.06393598230727
Source of the keplerian elements: AFSPC